sat.trackr.live / text

‹ back to catalog

SDA_1671

NORAD 65981 · 2025-230H

PAYLOAD ACTIVE UNKNOWN

§ Identity

Operator
Country
US
Launch date
2025-10-15
Launch site
AFWTR
Launch vehicle
Mass (kg)
RCS (m²)

External: N2YO · Heavens-Above · Gunter

§ Orbital elements

Epoch: 2026-09-20T14:12:11.398176Z

Period
104.49 min
Inclination
81.2983°
Eccentricity
0.0001852
Mean motion
13.78088304 rev/d
Perigee alt
969.3 km
Apogee alt
972.0 km
Semi-major
7,348.8 km
B*
9.0855e-5
RAAN
124.2196°
Arg perigee
327.5886°
Mean anomaly
32.5153°
Rev number
4,695

§ Raw data

SDA_16711 65981U 25230H   26263.59179859  .00000103  00000+0  90855-4 0  99972 65981  81.2983 124.2196 0001852 327.5886  32.5153 13.78088304 46957

JSON: /api/v1/satellites/65981 · /tle

For live sub-satellite position, see the globe view (requires WebGL).

§ Visibility from observer

Set your observer location to see the next 7 days of passes ≥ 10°. The values pass through the URL so the page stays shareable.

No JS? Fill the form by hand. The geolocation button needs JavaScript.